Clemson, SC

9:21 PM EDT on September 25, 2017 (GMT -0400)
Oconee County Regional

Weather History for KCEU - November, 2013

Change the Weather History Date:

Thursday, November 21, 2013

  Actual Average Record
Temperature  
Mean Temperature 50 °F -  
Max Temperature 53 °F 61 °F 78 °F (1942)
Min Temperature 48 °F 38 °F 13 °F (1937)
Degree Days  
Heating Degree Days 14    
Moisture  
Dew Point 40 °F    
Average Humidity 68    
Maximum Humidity 83    
Minimum Humidity 47    
Precipitation  
Precipitation 0.02 in - - ()
Sea Level Pressure  
Sea Level Pressure 30.41 in    
Wind  
Wind Speed 7 mph (NE)    
Max Wind Speed 12 mph    
Max Gust Speed -    
Visibility 10 miles    
Events Rain    
Averages and records for this station are not official NWS values.
T = Trace of Precipitation, MM = Missing Value Source: NWS Daily Summary

Daily Weather History Graph

Daily Weather History Graph

Search for Another Location

Airport or City:

Trip Planner

Search our weather history database for the weather conditions in past years. The results will help you decide how hot, cold, wet, or windy it might be!

Date:

Astronomy

Nov. 21, 2013 Rise Set
Actual Time 7:11 AM EST 5:23 PM EST
Civil Twilight 6:44 AM EST 5:50 PM EST
Nautical Twilight 6:13 AM EST 6:21 PM EST
Astronomical Twilight 5:43 AM EST 6:51 PM EST
Moon 8:57 PM EST (11/21) 10:17 AM EST (11/21)
Length of Visible Light 11h 06m
Length of Day
10h 12m
Waning Gibbous, 85% of the Moon is Illuminated
Nov 21
Waning Gibbous
Nov 25
Last Quarter
Dec 2
New
Dec 9
First Quarter
Dec 17
Full

Hourly Weather History & Observations

Time (EST) Temp. Dew Point Humidity Pressure Visibility Wind Dir Wind Speed Gust Speed Precip Events Conditions
12:54 AM 50.0 °F 30.9 °F 48% 30.42 in 10.0 mi NE 9.2 mph - N/A   Overcast
1:34 AM 50.0 °F 30.2 °F 47% 30.42 in 10.0 mi NE 11.5 mph - N/A   Overcast
1:54 AM 50.0 °F 30.9 °F 48% 30.41 in 10.0 mi NE 10.4 mph - N/A   Overcast
2:54 AM 48.9 °F 30.0 °F 48% 30.42 in 10.0 mi NE 8.1 mph - N/A   Overcast
3:54 AM 48.9 °F 30.9 °F 50% 30.42 in 10.0 mi NE 5.8 mph - N/A   Overcast
4:54 AM 48.9 °F 32.0 °F 52% 30.40 in 10.0 mi NE 9.2 mph - 0.00 in   Overcast
5:54 AM 48.9 °F 32.0 °F 52% 30.42 in 10.0 mi NE 8.1 mph - N/A   Overcast
6:54 AM 48.9 °F 33.1 °F 54% 30.43 in 10.0 mi ENE 8.1 mph - N/A   Overcast
7:08 AM 48.2 °F 33.8 °F 58% 30.43 in 10.0 mi ENE 8.1 mph - N/A   Overcast
7:54 AM 48.9 °F 34.0 °F 56% 30.44 in 10.0 mi NE 8.1 mph - 0.00 in   Overcast
8:54 AM 48.9 °F 37.9 °F 66% 30.44 in 9.0 mi ENE 9.2 mph - 0.00 in Rain Light Rain
9:54 AM 48.9 °F 39.9 °F 71% 30.46 in 7.0 mi NE 5.8 mph - 0.00 in Rain Light Rain
10:54 AM 48.9 °F 42.1 °F 77% 30.45 in 3.0 mi NE 5.8 mph - 0.01 in Rain Light Rain
11:54 AM 50.0 °F 43.0 °F 77% 30.44 in 10.0 mi ENE 3.5 mph - 0.00 in   Overcast
12:24 PM 50.0 °F 44.6 °F 82% 30.42 in 9.0 mi Calm Calm - 0.01 in   Overcast
12:54 PM 51.1 °F 44.1 °F 77% 30.41 in 10.0 mi ENE 6.9 mph - 0.01 in   Overcast
1:54 PM 51.1 °F 44.1 °F 77% 30.40 in 10.0 mi ENE 5.8 mph - N/A   Overcast
2:54 PM 52.0 °F 45.0 °F 77% 30.38 in 10.0 mi NE 6.9 mph - N/A   Overcast
3:37 PM 53.6 °F 44.6 °F 72% 30.38 in 10.0 mi ENE 8.1 mph - N/A   Overcast
3:54 PM 52.0 °F 44.1 °F 74% 30.38 in 10.0 mi ENE 5.8 mph - N/A   Overcast
4:54 PM 52.0 °F 44.1 °F 74% 30.38 in 10.0 mi NNE 5.8 mph - N/A   Overcast
5:54 PM 52.0 °F 44.1 °F 74% 30.39 in 10.0 mi NE 6.9 mph - N/A   Overcast
6:51 PM 51.8 °F 44.6 °F 76% 30.40 in 10.0 mi ENE 5.8 mph - N/A   Overcast
6:54 PM 52.0 °F 44.1 °F 74% 30.40 in 10.0 mi NE 6.9 mph - N/A   Overcast
7:54 PM 52.0 °F 44.1 °F 74% 30.40 in 10.0 mi NE 5.8 mph - N/A   Overcast
8:54 PM 52.0 °F 45.0 °F 77% 30.40 in 10.0 mi NE 4.6 mph - N/A   Overcast
9:54 PM 52.0 °F 45.0 °F 77% 30.41 in 10.0 mi Calm Calm - 0.00 in Rain Light Rain
10:54 PM 52.0 °F 46.0 °F 80% 30.41 in 10.0 mi ENE 3.5 mph - 0.00 in   Overcast
11:29 PM 51.8 °F 46.4 °F 82% 30.41 in 8.0 mi Calm Calm - N/A   Overcast
11:54 PM 52.0 °F 46.9 °F 83% 30.40 in 9.0 mi NNE 3.5 mph - N/A   Overcast